EW3863 Weather Reports


Display with metric or nautical units.
time (UTC)temp
F
wind
direction
speed
MPH
gust
MPH
rain 1hr
in
rain 24hr
in
rain mn
in
humidity
%
barometer
mb
20260503033053 51 18 0.0 0.0 0.00 0.00 0.00 76 1018.7
20260503031550 52 18 0.0 0.0 0.00 0.00 0.00 75 1018.8
20260503030113 52 18 0.0 0.0 0.00 0.00 0.00 76 1018.8
20260503024548 52 18 0.0 1.0 0.00 0.00 0.00 76 1018.8
20260503023046 51 18 0.0 0.0 0.00 0.00 0.00 76 1018.8
20260503021545 51 18 0.0 0.0 0.00 0.00 0.00 76 1018.9
20260503020044 51 18 0.0 0.0 0.00 0.00 0.00 75 1019.0
20260503014557 52 18 0.0 0.0 0.00 0.00 0.00 74 1019.0
20260503013041 52 18 0.0 0.0 0.00 0.00 0.00 73 1019.1
20260503011547 53 18 0.0 0.0 0.00 0.00 0.00 72 1019.1
20260503010036 53 18 0.0 0.0 0.00 0.00 0.00 71 1019.2
20260503004538 53 18 0.0 0.0 0.00 0.00 0.00 70 1019.3
20260503003043 53 18 0.0 0.0 0.00 0.00 0.00 71 1019.3
20260503001531 54 18 0.0 0.0 0.00 0.00 0.00 70 1019.4
20260503000033 54 18 0.0 0.0 0.00 0.00 0.00 70 1019.5
20260502234527 55 18 0.0 0.0 0.00 0.00 0.00 69 1019.6
20260502233025 55 18 0.0 0.0 0.00 0.00 0.00 69 1019.6
20260502231522 55 18 0.0 0.0 0.00 0.00 0.00 68 1019.8
20260502230019 56 18 0.0 0.0 0.00 0.00 0.00 67 1019.9
20260502224517 56 18 0.0 0.0 0.00 0.00 0.00 67 1020.0
20260502223016 57 18 0.0 0.0 0.00 0.00 0.00 66 1020.1
20260502221514 57 18 0.0 0.0 0.00 0.00 0.00 65 1020.1
20260502220013 58 18 0.0 0.0 0.00 0.00 0.00 64 1020.2
20260502214513 58 18 0.0 0.0 0.00 0.00 0.00 63 1020.2
20260502213032 59 18 0.0 0.0 0.00 0.00 0.00 62 1020.2
20260502211510 60 18 0.0 0.0 0.00 0.00 0.00 61 1020.3
20260502210011 61 18 0.0 0.0 0.00 0.00 0.00 59 1020.3
20260502204509 61 18 0.0 1.0 0.00 0.00 0.00 58 1020.4
20260502203008 61 18 0.0 0.0 0.00 0.00 0.00 58 1020.4
20260502201514 61 18 0.0 0.0 0.00 0.00 0.00 59 1020.4
20260502200007 61 18 0.0 0.0 0.00 0.00 0.00 58 1020.5
20260502194505 62 18 0.0 0.0 0.00 0.00 0.00 56 1020.4
20260502193005 63 18 0.0 0.0 0.00 0.00 0.00 55 1020.3
20260502191507 64 18 0.0 0.0 0.00 0.00 0.00 54 1020.3
20260502190008 65 18 0.0 0.0 0.00 0.00 0.00 52 1020.3
20260502184502 66 18 0.0 0.0 0.00 0.00 0.00 51 1020.2
20260502183002 68 18 0.0 0.0 0.00 0.00 0.00 48 1020.1
20260502181502 69 18 0.0 2.0 0.00 0.00 0.00 45 1020.0
20260502163053 73 30 1.0 3.0 0.00 0.00 0.00 37 1020.4
20260502161553 73 32 1.0 5.0 0.00 0.00 0.00 37 1020.6
20260502151600 74 37 0.0 6.0 0.00 0.00 0.00 36 1021.0
20260502123025 78 158 0.0 1.0 0.00 0.00 0.00 32 1023.1
20260502121527 79 303 0.0 2.0 0.00 0.00 0.00 32 1023.2
20260502114520 77 24 0.0 7.0 0.00 0.00 0.00 32 1023.6
20260502113018 78 42 0.0 5.0 0.00 0.00 0.00 30 1023.8
20260502111516 76 168 1.0 4.0 0.00 0.00 0.00 32 1023.9
20260502110014 78 17 0.0 8.0 0.00 0.00 0.00 31 1024.2
20260502104511 79 14 2.0 4.0 0.00 0.00 0.00 29 1024.5
20260502103017 79 4 1.0 7.0 0.00 0.00 0.00 29 1024.6
20260502101507 78 22 1.0 0.0 0.00 0.00 0.00 30 1024.8
20260502080103 76 25 0.0 2.0 0.00 0.00 0.00 35 1025.6
20260502070040 72 27 0.0 1.0 0.00 0.00 0.00 44 1025.9
20260502064550 68 26 0.0 1.0 0.00 0.00 0.00 48 1025.9
20260502063035 64 25 0.0 1.0 0.00 0.00 0.00 53 1025.9
20260502061526 58 26 0.0 0.0 0.00 0.00 0.00 59 1026.0
20260502060021 54 26 0.0 0.0 0.00 0.00 0.00 64 1025.9
20260502054518 52 26 0.0 0.0 0.00 0.00 0.00 66 1025.9
20260502053016 51 26 0.0 1.0 0.00 0.00 0.00 67 1025.9
20260502051516 50 26 0.0 0.0 0.00 0.00 0.00 68 1025.8
20260502050022 49 26 0.0 1.0 0.00 0.00 0.00 69 1025.7
20260502044514 48 26 0.0 1.0 0.00 0.00 0.00 69 1025.8
20260502043014 48 26 0.0 0.0 0.00 0.00 0.00 70 1025.8
20260502041513 48 26 0.0 0.0 0.00 0.00 0.00 69 1025.8
20260502040019 49 26 0.0 0.0 0.00 0.00 0.00 68 1025.8
20260502034510 49 26 0.0 0.0 0.00 0.00 0.00 67 1025.7